TimePST,TemperatureF,Dew PointF,Humidity,Sea Level PressureIn,VisibilityMPH,Wind Direction,Wind SpeedMPH,Gust SpeedMPH,PrecipitationIn,Events,Conditions,WindDirDegrees,DateUTC
12:00 AM,15.8,5.0,62,30.36,9.0,Calm,Calm,-,N/A,,Clear,0,2014-01-04 08:00:00
1:00 AM,13,4,54,30.37,9,SW,2.3,,,,,220,2014-01-04 09:00:00
1:00 AM,14.0,3.2,62,30.37,9.0,SW,3.5,-,N/A,,Clear,220,2014-01-04 09:00:00
2:00 AM,10.4,3.2,73,30.39,9.0,Calm,Calm,-,N/A,,Clear,0,2014-01-04 10:00:00
3:00 AM,10.4,1.4,67,30.40,9.0,Calm,Calm,-,N/A,,Clear,0,2014-01-04 11:00:00
4:00 AM,11,2,53,30.40,9,NW,2.3,,,,,320,2014-01-04 12:00:00
4:00 AM,10.4,1.4,67,30.40,9.0,NW,2.3,-,N/A,,Clear,310,2014-01-04 12:00:00
5:00 AM,10.4,1.4,67,30.43,9.0,Calm,Calm,-,N/A,,Clear,0,2014-01-04 13:00:00
6:00 AM,8.6,-0.4,67,30.44,9.0,Calm,Calm,-,N/A,,Clear,0,2014-01-04 14:00:00
7:00 AM,8,-1,55,30.46,9,East,2.3,,,,,80,2014-01-04 15:00:00
7:00 AM,8.6,-0.4,67,30.46,9.0,East,2.3,-,N/A,,Clear,80,2014-01-04 15:00:00
8:00 AM,8.6,-0.4,67,30.46,9.0,NW,3.5,-,N/A,,Clear,310,2014-01-04 16:00:00
9:00 AM,8.6,-0.4,67,30.49,9.0,South,2.3,-,N/A,,Clear,190,2014-01-04 17:00:00
10:00 AM,16,5,47,30.49,9,SSW,2.3,,,,,200,2014-01-04 18:00:00
10:00 AM,15.8,5.0,62,30.49,9.0,South,2.3,-,N/A,,Clear,170,2014-01-04 18:00:00
11:00 AM,21.2,5.0,50,30.49,9.0,East,2.3,-,N/A,,Clear,80,2014-01-04 19:00:00
12:00 PM,24.8,5.0,43,30.48,9.0,Calm,Calm,-,N/A,,Clear,0,2014-01-04 20:00:00
1:00 PM,27,4,24,30.48,9,NNE,3.5,,,,,20,2014-01-04 21:00:00
1:00 PM,26.6,5.0,40,30.48,9.0,North,4.6,-,N/A,,Clear,360,2014-01-04 21:00:00
2:00 PM,30.2,5.0,34,30.47,9.0,North,8.1,-,N/A,,Clear,360,2014-01-04 22:00:00
3:00 PM,28.4,5.0,37,30.48,9.0,North,3.5,-,N/A,,Clear,10,2014-01-04 23:00:00
4:00 PM,26,6,28,30.51,9,North,3.5,,,,,350,2014-01-05 00:00:00
4:00 PM,26.6,6.8,43,30.51,9.0,North,3.5,-,N/A,,Clear,350,2014-01-05 00:00:00
5:00 PM,19.4,6.8,58,30.54,9.0,NNW,3.5,-,N/A,,Clear,330,2014-01-05 01:00:00
6:00 PM,19.4,5.0,54,30.56,9.0,NW,4.6,-,N/A,,Clear,320,2014-01-05 02:00:00
7:00 PM,20,4,35,30.58,9,NW,5.8,,,,,320,2014-01-05 03:00:00
7:00 PM,19.4,5.0,54,30.58,9.0,NW,6.9,-,N/A,,Clear,320,2014-01-05 03:00:00
8:00 PM,17.6,5.0,58,30.61,9.0,NW,3.5,-,N/A,,Clear,320,2014-01-05 04:00:00
9:00 PM,15.8,3.2,58,30.62,9.0,NW,3.5,-,N/A,,Clear,310,2014-01-05 05:00:00
10:00 PM,16,4,45,30.62,9,NW,5.8,,,,,310,2014-01-05 06:00:00
10:00 PM,15.8,3.2,58,30.62,9.0,NW,6.9,-,N/A,,Clear,310,2014-01-05 06:00:00
11:00 PM,14.0,3.2,62,30.61,9.0,Calm,Calm,-,N/A,,Clear,0,2014-01-05 07:00:00